This is the latest recevied weather packets stored in our database for station/object W3EJE-13. If no packets are shown the sender has not sent any weather packets the latest 10 day(s).
| Time | Temp. | Humidity | Pressure | Rain* | Wind** | Luminosity | Snow |
|---|---|---|---|---|---|---|---|
| 1777118123 | 10.56° C | 99% | 1011.1 hPa | 0 mm | - | 76 W/m² | - |
| 1777117820 | 10.56° C | 99% | 1011.1 hPa | 0 mm | - | 74 W/m² | - |
| 1777117517 | 10.56° C | 99% | 1011.3 hPa | 0 mm | - | 71 W/m² | - |
| 1777117215 | 10° C | 99% | 1011.2 hPa | 0 mm | - | 67 W/m² | - |
| 1777116914 | 10° C | 99% | 1011.3 hPa | 0 mm | - | 64 W/m² | - |
| 1777116611 | 10° C | 99% | 1011.2 hPa | 0 mm | - | 62 W/m² | - |
| 1777116306 | 10° C | 99% | 1011.1 hPa | 0 mm | - | 58 W/m² | - |
| 1777116002 | 9.44° C | 99% | 1010.9 hPa | 0 mm | - | 53 W/m² | - |
| 1777115696 | 9.44° C | 99% | 1011 hPa | 0 mm | - | 51 W/m² | - |
| 1777115393 | 9.44° C | 99% | 1011.1 hPa | 0 mm | - | 49 W/m² | - |
| 1777115089 | 9.44° C | 99% | 1010.9 hPa | 0 mm | - | 43 W/m² | - |
| 1777114786 | 9.44° C | 99% | 1010.7 hPa | 0 mm | - | 35 W/m² | - |
| 1777114481 | 9.44° C | 99% | 1010.7 hPa | 0 mm | - | 29 W/m² | - |
| 1777114177 | 8.89° C | 99% | 1010.8 hPa | 0 mm | - | 20 W/m² | - |
| 1777113873 | 8.89° C | 99% | 1010.7 hPa | 0 mm | - | 12 W/m² | - |
| 1777113572 | 8.89° C | 99% | 1010.6 hPa | 0 mm | - | 7 W/m² | - |
| 1777113267 | 8.89° C | 99% | 1010.3 hPa | 0 mm | - | 4 W/m² | - |
| 1777112956 | 8.89° C | 99% | 1010.7 hPa | 0 mm | - | 2 W/m² | - |
| 1777112655 | 8.89° C | 99% | 1010.6 hPa | 0 mm | - | 0 W/m² | - |
| 1777112349 | 8.89° C | 99% | 1010.6 hPa | 0 mm | - | 0 W/m² | - |
| 1777112047 | 8.89° C | 99% | 1010.6 hPa | 0 mm | - | 0 W/m² | - |
| 1777111743 | 8.89° C | 99% | 1010.5 hPa | 0 mm | - | 0 W/m² | - |
| 1777111440 | 8.89° C | 99% | 1010.7 hPa | 0 mm | - | 0 W/m² | - |
| 1777111135 | 8.89° C | 99% | 1010.3 hPa | 0 mm | - | 0 W/m² | - |
| 1777110832 | 8.89° C | 99% | 1010.5 hPa | 0 mm | - | 0 W/m² | - |
* Rain latest hour (hover to see other rain measurements)
** Current wind speed in m/s (hover to see current wind gust speed)